Home > Weather > Umm al-Quwain > Past weeks

Flag for United Arab Emirates Past Weather in Umm al-Quwain, Umm al-Quwain, United Arab Emirates — Yesterday and Last 2 Weeks

Now
86 °F

Clear.


Feels Like: 84 °F
Forecast: 88 / 97 °F
Wind: 9 mph from South

Location: Sharjah International Airport

Current Time: May 30, 2016 at 5:25:26 AM

Latest Report: May 30, 2016 at 5:00 AM


Visibility: 10 mi

Pressure: 29.56 "Hg

Humidity: 31%

Dew Point: 52 °F

Location of Umm al-QuwainLocation

Past Weather in Umm al-Quwain — Graph

°F

Umm al-Quwain Temperature Yesterday

Maximum temperature yesterday: 100 °F (at 11:00 AM)
Minimum temperature yesterday: 77 °F (at 3:00 AM)
Average temperature yesterday: 91 °F

High & Low Weather Summary for the Past Weeks

 TemperatureHumidityPressure
High108 °F (May 17, 12:00 PM)89% (May 24, 6:00 AM)29.77 "Hg (May 24, 6:00 AM)
Low75 °F (May 16, 6:00 AM)12% (May 17, 12:00 PM)29.53 "Hg (May 20, 5:00 PM)
Average90 °F50%29.63 "Hg
* Reported May 15 4:00 AM — May 30 4:00 AM, Umm al-Quwain, Weather by CustomWeather, © 2016

Note: Actual official high and low records may vary slightly from our data, if they occured in-between our weather recording intervals... More about our weather records

Advertising

Umm al-Quwain Weather History for the Previous 24 Hours

Scroll right to see more
 ConditionsComfort  
Time TempWeatherWind HumidityBarometerVisibility
4:00 AM
Mon, May 30
86 °FClear.10 mph35%29.56 "Hg10 mi
3:00 AM86 °FClear.8 mph35%29.56 "Hg10 mi
2:00 AM88 °FClear.12 mph35%29.56 "Hg10 mi
1:00 AM88 °FClear.8 mph40%29.56 "Hg10 mi
12:00 AM90 °FClear.7 mph43%29.59 "Hg10 mi
11:00 PM
Sun, May 29
91 °FClear.3 mph41%29.62 "Hg10 mi
10:00 PM93 °FClear.5 mph36%29.62 "Hg10 mi
9:00 PM93 °FClear.2 mph39%29.62 "Hg10 mi
8:00 PM95 °FClear.3 mph36%29.62 "Hg10 mi
7:00 PM97 °FSunny.6 mph34%29.62 "Hg10 mi
6:00 PM99 °FSunny.10 mph33%29.59 "Hg10 mi
5:00 PM99 °FSunny.12 mph31%29.59 "Hg10 mi
4:00 PM100 °FSunny.15 mph27%29.59 "Hg10 mi
3:00 PM100 °FSunny.14 mph31%29.62 "Hg10 mi
2:00 PM99 °FSunny.13 mph35%29.62 "Hg10 mi
1:00 PM100 °FSunny.15 mph33%29.65 "Hg10 mi
12:00 PM100 °FSunny.8 mph35%29.65 "Hg10 mi
11:00 AM100 °FSunny.7 mph31%29.68 "Hg10 mi
10:00 AM95 °FSunny.8 mph39%29.68 "Hg10 mi
9:00 AM90 °FSunny.7 mph52%29.68 "Hg10 mi
8:00 AM86 °FSunny.6 mph62%29.68 "Hg10 mi
7:00 AM82 °FWarm.6 mph74%29.65 "Hg4 mi
6:00 AM79 °FClear.5 mph79%29.62 "Hg4 mi
5:00 AM79 °FClear.2 mph79%29.62 "Hg10 mi
Weather by CustomWeather, © 2016

See weather overviewHow to use our weather pages